Time,TemperatureF,DewpointF,PressureIn,WindDirection,WindDirectionDegrees,WindSpeedMPH,WindSpeedGustMPH,Humidity,HourlyPrecipIn,Conditions,Clouds,dailyrainin,SolarRadiationWatts/m^2,SoftwareType,DateUTC
2013-08-28 10:24:00,80.0,54.0,-100.00,SSE,159,8.0,13.0,41,0.00,,,0.00,592.000000,,2013-08-28 17:24:00,
2013-08-28 10:35:00,80.0,54.0,-100.00,SSE,159,8.0,13.0,41,0.00,,,0.00,592.000000,,2013-08-28 17:35:00,
2013-08-28 10:43:00,80.0,54.0,-100.00,SSE,159,8.0,13.0,41,0.00,,,0.00,592.000000,,2013-08-28 17:43:00,
2013-08-28 10:52:00,80.0,54.0,-100.00,SSE,159,8.0,13.0,41,0.00,,,0.00,592.000000,,2013-08-28 17:52:00,
2013-08-28 11:22:00,82.0,53.0,-100.00,SSE,160,8.0,16.0,37,0.00,,,0.00,530.000000,,2013-08-28 18:22:00,
2013-08-28 11:32:00,82.0,53.0,-100.00,SSE,160,8.0,16.0,37,0.00,,,0.00,530.000000,,2013-08-28 18:32:00,
2013-08-28 11:42:00,82.0,53.0,-100.00,SSE,160,8.0,16.0,37,0.00,,,0.00,530.000000,,2013-08-28 18:42:00,
2013-08-28 11:52:00,82.0,53.0,-100.00,SSE,160,8.0,16.0,37,0.00,,,0.00,530.000000,,2013-08-28 18:52:00,
2013-08-28 12:22:00,85.0,55.0,-100.00,South,178,16.0,25.0,36,0.00,,,0.00,572.000000,,2013-08-28 19:22:00,
2013-08-28 12:32:00,85.0,55.0,-100.00,South,178,16.0,25.0,36,0.00,,,0.00,572.000000,,2013-08-28 19:32:00,
2013-08-28 12:42:00,85.0,55.0,-100.00,South,178,16.0,25.0,36,0.00,,,0.00,572.000000,,2013-08-28 19:42:00,
2013-08-28 12:52:00,85.0,55.0,-100.00,South,178,16.0,25.0,36,0.00,,,0.00,572.000000,,2013-08-28 19:52:00,
2013-08-28 13:23:00,86.0,56.0,-100.00,South,181,18.0,26.0,36,0.00,,,0.00,976.000000,,2013-08-28 20:23:00,
2013-08-28 13:32:00,86.0,56.0,-100.00,South,181,18.0,26.0,36,0.00,,,0.00,976.000000,,2013-08-28 20:32:00,
2013-08-28 13:43:00,86.0,56.0,-100.00,South,181,18.0,26.0,36,0.00,,,0.00,976.000000,,2013-08-28 20:43:00,
2013-08-28 13:52:00,86.0,56.0,-100.00,South,181,18.0,26.0,36,0.00,,,0.00,976.000000,,2013-08-28 20:52:00,
2013-08-28 14:22:00,87.0,54.0,-100.00,South,179,20.0,32.0,32,0.00,,,0.00,1061.000000,,2013-08-28 21:22:00,
2013-08-28 14:35:00,87.0,54.0,-100.00,South,179,20.0,32.0,32,0.00,,,0.00,1061.000000,,2013-08-28 21:35:00,
2013-08-28 14:44:00,87.0,54.0,-100.00,South,179,20.0,32.0,32,0.00,,,0.00,1061.000000,,2013-08-28 21:44:00,
2013-08-28 14:57:00,87.0,54.0,-100.00,South,179,20.0,32.0,32,0.00,,,0.00,1061.000000,,2013-08-28 21:57:00,
2013-08-28 15:25:00,87.0,54.0,-100.00,South,177,19.0,28.0,33,0.00,,,0.00,989.000000,,2013-08-28 22:25:00,
2013-08-28 15:34:00,87.0,54.0,-100.00,South,177,19.0,28.0,33,0.00,,,0.00,989.000000,,2013-08-28 22:34:00,
2013-08-28 15:43:00,87.0,54.0,-100.00,South,177,19.0,28.0,33,0.00,,,0.00,989.000000,,2013-08-28 22:43:00,
2013-08-28 15:54:00,87.0,54.0,-100.00,South,177,19.0,28.0,33,0.00,,,0.00,989.000000,,2013-08-28 22:54:00,
2013-08-28 16:22:00,85.0,53.0,-100.00,South,176,18.0,29.0,34,0.00,,,0.00,850.000000,,2013-08-28 23:22:00,
2013-08-28 16:33:00,85.0,53.0,-100.00,South,176,18.0,29.0,34,0.00,,,0.00,850.000000,,2013-08-28 23:33:00,
2013-08-28 16:42:00,85.0,53.0,-100.00,South,176,18.0,29.0,34,0.00,,,0.00,850.000000,,2013-08-28 23:42:00,
2013-08-28 16:53:00,85.0,53.0,-100.00,South,176,18.0,29.0,34,0.00,,,0.00,850.000000,,2013-08-28 23:53:00,
2013-08-28 18:22:00,80.0,52.0,-100.00,South,189,13.0,22.0,38,0.00,,,0.00,420.000000,,2013-08-29 01:22:00,
2013-08-28 18:32:00,80.0,52.0,-100.00,South,189,13.0,22.0,38,0.00,,,0.00,420.000000,,2013-08-29 01:32:00,
2013-08-28 18:42:00,80.0,52.0,-100.00,South,189,13.0,22.0,38,0.00,,,0.00,420.000000,,2013-08-29 01:42:00,
2013-08-28 18:52:00,80.0,52.0,-100.00,South,189,13.0,22.0,38,0.00,,,0.00,420.000000,,2013-08-29 01:52:00,
2013-08-28 19:22:00,76.0,51.0,-100.00,South,190,14.0,19.0,42,0.00,,,0.00,94.000000,,2013-08-29 02:22:00,
2013-08-28 19:32:00,76.0,51.0,-100.00,South,190,14.0,19.0,42,0.00,,,0.00,94.000000,,2013-08-29 02:32:00,
2013-08-28 19:43:00,76.0,51.0,-100.00,South,190,14.0,19.0,42,0.00,,,0.00,94.000000,,2013-08-29 02:43:00,
2013-08-28 19:52:00,76.0,51.0,-100.00,South,190,14.0,19.0,42,0.00,,,0.00,94.000000,,2013-08-29 02:52:00,
2013-08-28 20:23:00,72.0,49.0,-100.00,SSW,192,14.0,20.0,45,0.00,,,0.00,7.000000,,2013-08-29 03:23:00,
2013-08-28 20:37:00,72.0,49.0,-100.00,SSW,192,14.0,20.0,45,0.00,,,0.00,7.000000,,2013-08-29 03:37:00,
2013-08-28 20:45:00,72.0,49.0,-100.00,SSW,192,14.0,20.0,45,0.00,,,0.00,7.000000,,2013-08-29 03:45:00,
2013-08-28 20:56:00,72.0,49.0,-100.00,SSW,192,14.0,20.0,45,0.00,,,0.00,7.000000,,2013-08-29 03:56:00,
2013-08-28 21:28:00,72.0,50.0,-100.00,South,188,15.0,20.0,46,0.00,,,0.00,1.000000,,2013-08-29 04:28:00,
2013-08-28 21:37:00,72.0,50.0,-100.00,South,188,15.0,20.0,46,0.00,,,0.00,1.000000,,2013-08-29 04:37:00,
2013-08-28 21:45:00,72.0,50.0,-100.00,South,188,15.0,20.0,46,0.00,,,0.00,1.000000,,2013-08-29 04:45:00,
2013-08-28 21:54:00,72.0,50.0,-100.00,South,188,15.0,20.0,46,0.00,,,0.00,1.000000,,2013-08-29 04:54:00,
2013-08-28 22:23:00,71.0,50.0,-100.00,SSW,198,13.0,21.0,48,0.00,,,0.00,1.000000,,2013-08-29 05:23:00,
2013-08-28 22:34:00,71.0,50.0,-100.00,SSW,198,13.0,21.0,48,0.00,,,0.00,1.000000,,2013-08-29 05:34:00,
2013-08-28 22:42:00,71.0,50.0,-100.00,SSW,198,13.0,21.0,48,0.00,,,0.00,1.000000,,2013-08-29 05:42:00,
2013-08-28 22:52:00,71.0,50.0,-100.00,SSW,198,13.0,21.0,48,0.00,,,0.00,1.000000,,2013-08-29 05:52:00,
2013-08-28 23:43:00,71.0,50.0,-100.00,SSW,197,15.0,19.0,47,0.00,,,0.00,1.000000,,2013-08-29 06:43:00,
2013-08-28 23:52:00,71.0,50.0,-100.00,SSW,197,15.0,19.0,47,0.00,,,0.00,1.000000,,2013-08-29 06:52:00,